Time,TemperatureF,DewpointF,PressureIn,WindDirection,WindDirectionDegrees,WindSpeedMPH,WindSpeedGustMPH,Humidity,HourlyPrecipIn,Conditions,Clouds,dailyrainin,SolarRadiationWatts/m^2,SoftwareType,DateUTC
2013-02-12 00:01:00,35.3,30.1,29.58,WSW,245,0.0,3.0,81,0.00,,,0.00,0,Wunderground v.1.15,2013-02-12 05:01:00,
2013-02-12 00:06:00,35.2,30.0,29.58,WSW,245,0.0,3.0,81,0.00,,,0.00,0,Wunderground v.1.15,2013-02-12 05:06:00,
2013-02-12 00:16:00,35.0,29.8,29.58,WSW,245,0.0,3.0,81,0.00,,,0.00,0,Wunderground v.1.15,2013-02-12 05:16:00,
2013-02-12 00:21:00,35.0,29.8,29.58,WSW,245,0.0,3.0,81,0.00,,,0.00,0,Wunderground v.1.15,2013-02-12 05:21:00,
2013-02-12 00:31:00,34.9,29.4,29.58,WSW,245,0.0,1.0,80,0.00,,,0.00,0,Wunderground v.1.15,2013-02-12 05:31:00,
2013-02-12 00:41:00,34.7,29.2,29.58,WSW,245,0.0,1.0,80,0.00,,,0.00,0,Wunderground v.1.15,2013-02-12 05:41:00,
2013-02-12 00:51:00,34.7,29.2,29.58,SSW,195,0.0,1.0,80,0.00,,,0.00,0,Wunderground v.1.15,2013-02-12 05:51:00,
2013-02-12 01:01:00,34.6,28.8,29.57,ESE,104,0.0,3.0,79,0.00,,,0.00,0,Wunderground v.1.15,2013-02-12 06:01:00,
2013-02-12 01:11:00,34.7,28.2,29.57,ESE,108,0.0,3.0,77,0.00,,,0.00,0,Wunderground v.1.15,2013-02-12 06:11:00,
2013-02-12 01:20:00,35.0,27.9,29.57,ENE,72,1.0,5.0,75,0.00,,,0.00,0,Wunderground v.1.15,2013-02-12 06:20:00,
2013-02-12 01:26:00,35.0,27.9,29.57,East,92,1.0,5.0,75,0.00,,,0.00,0,Wunderground v.1.15,2013-02-12 06:26:00,
2013-02-12 01:31:00,35.2,28.4,29.57,East,101,1.0,1.0,76,0.00,,,0.00,0,Wunderground v.1.15,2013-02-12 06:31:00,
2013-02-12 01:40:00,35.0,28.2,29.57,ESE,102,0.0,5.0,76,0.00,,,0.00,0,Wunderground v.1.15,2013-02-12 06:40:00,
2013-02-12 01:46:00,34.9,28.1,29.57,ESE,102,0.0,5.0,76,0.00,,,0.00,0,Wunderground v.1.15,2013-02-12 06:46:00,
2013-02-12 01:56:00,34.7,27.9,29.57,ESE,102,0.0,5.0,76,0.00,,,0.00,0,Wunderground v.1.15,2013-02-12 06:56:00,
2013-02-12 02:11:00,34.6,28.1,29.58,ESE,102,0.0,3.0,77,0.00,,,0.00,0,Wunderground v.1.15,2013-02-12 07:11:00,
2013-02-12 02:20:00,34.4,28.2,29.58,ESE,102,0.0,3.0,78,0.00,,,0.00,0,Wunderground v.1.15,2013-02-12 07:20:00,
2013-02-12 02:26:00,34.3,28.2,29.58,ESE,102,0.0,3.0,78,0.00,,,0.00,0,Wunderground v.1.15,2013-02-12 07:26:00,
2013-02-12 02:36:00,34.3,28.2,29.57,ESE,102,0.0,0.0,78,0.00,,,0.00,0,Wunderground v.1.15,2013-02-12 07:36:00,
2013-02-12 02:46:00,34.1,28.3,29.57,ESE,102,0.0,0.0,79,0.00,,,0.00,0,Wunderground v.1.15,2013-02-12 07:46:00,
2013-02-12 02:56:00,34.0,28.2,29.57,ESE,102,0.0,0.0,79,0.00,,,0.00,0,Wunderground v.1.15,2013-02-12 07:56:00,
2013-02-12 03:11:00,33.8,28.0,29.57,ESE,102,0.0,2.0,79,0.00,,,0.00,0,Wunderground v.1.15,2013-02-12 08:11:00,
2013-02-12 03:20:00,33.8,28.3,29.57,ESE,102,0.0,2.0,80,0.00,,,0.00,0,Wunderground v.1.15,2013-02-12 08:20:00,
2013-02-12 03:26:00,33.7,28.2,29.57,ESE,102,0.0,2.0,80,0.00,,,0.00,0,Wunderground v.1.15,2013-02-12 08:26:00,
2013-02-12 03:36:00,33.7,28.2,29.57,ESE,102,0.0,2.0,80,0.00,,,0.00,0,Wunderground v.1.15,2013-02-12 08:36:00,
2013-02-12 03:46:00,33.7,28.2,29.57,ESE,102,0.0,2.0,80,0.00,,,0.00,0,Wunderground v.1.15,2013-02-12 08:46:00,
2013-02-12 03:56:00,33.7,27.9,29.57,ESE,102,0.0,2.0,79,0.00,,,0.00,0,Wunderground v.1.15,2013-02-12 08:56:00,
2013-02-12 04:11:00,33.8,27.7,29.57,ESE,102,0.0,2.0,78,0.00,,,0.00,0,Wunderground v.1.15,2013-02-12 09:11:00,
2013-02-12 04:20:00,33.8,27.4,29.57,ESE,102,0.0,2.0,77,0.00,,,0.00,0,Wunderground v.1.15,2013-02-12 09:20:00,
2013-02-12 04:26:00,34.0,27.5,29.57,ESE,102,0.0,2.0,77,0.00,,,0.00,0,Wunderground v.1.15,2013-02-12 09:26:00,
2013-02-12 04:36:00,34.1,27.3,29.56,ESE,102,0.0,2.0,76,0.00,,,0.00,0,Wunderground v.1.15,2013-02-12 09:36:00,
2013-02-12 04:46:00,34.1,27.3,29.56,ESE,106,0.0,2.0,76,0.00,,,0.00,0,Wunderground v.1.15,2013-02-12 09:46:00,
2013-02-12 04:55:00,34.1,27.3,29.56,ESE,106,0.0,2.0,76,0.00,,,0.00,0,Wunderground v.1.15,2013-02-12 09:55:00,
2013-02-12 05:11:00,34.1,27.3,29.56,ESE,103,0.0,3.0,76,0.00,,,0.00,0,Wunderground v.1.15,2013-02-12 10:11:00,
2013-02-12 05:20:00,34.1,27.3,29.57,ESE,103,0.0,3.0,76,0.00,,,0.00,0,Wunderground v.1.15,2013-02-12 10:20:00,
2013-02-12 05:26:00,34.1,27.3,29.57,ESE,103,0.0,3.0,76,0.00,,,0.00,0,Wunderground v.1.15,2013-02-12 10:26:00,
2013-02-12 05:36:00,34.1,27.3,29.57,ESE,104,0.0,3.0,76,0.00,,,0.00,0,Wunderground v.1.15,2013-02-12 10:36:00,
2013-02-12 05:46:00,34.0,27.2,29.57,ESE,104,0.0,3.0,76,0.00,,,0.00,0,Wunderground v.1.15,2013-02-12 10:46:00,
2013-02-12 05:56:00,34.0,27.2,29.57,SE,128,0.0,3.0,76,0.00,,,0.00,0,Wunderground v.1.15,2013-02-12 10:56:00,
2013-02-12 06:11:00,34.1,27.0,29.57,SE,125,0.0,4.0,75,0.00,,,0.00,0,Wunderground v.1.15,2013-02-12 11:11:00,
2013-02-12 06:21:00,34.3,26.9,29.58,ESE,108,0.0,4.0,74,0.00,,,0.00,0,Wunderground v.1.15,2013-02-12 11:21:00,
2013-02-12 06:26:00,34.3,26.9,29.58,ENE,58,0.0,4.0,74,0.00,,,0.00,0,Wunderground v.1.15,2013-02-12 11:26:00,
2013-02-12 06:36:00,34.3,26.9,29.58,East,100,1.0,4.0,74,0.00,,,0.00,0,Wunderground v.1.15,2013-02-12 11:36:00,
2013-02-12 06:46:00,34.3,26.9,29.58,SE,134,1.0,2.0,74,0.00,,,0.00,0,Wunderground v.1.15,2013-02-12 11:46:00,
2013-02-12 06:56:00,34.3,26.9,29.58,SE,134,1.0,4.0,74,0.00,,,0.00,0,Wunderground v.1.15,2013-02-12 11:56:00,
2013-02-12 07:11:00,34.3,26.9,29.58,SE,131,0.0,4.0,74,0.00,,,0.00,5,Wunderground v.1.15,2013-02-12 12:11:00,
2013-02-12 07:21:00,34.1,27.0,29.58,East,101,0.0,4.0,75,0.00,,,0.00,12,Wunderground v.1.15,2013-02-12 12:21:00,
2013-02-12 07:31:00,34.1,26.7,29.58,ENE,70,0.0,4.0,74,0.00,,,0.00,19,Wunderground v.1.15,2013-02-12 12:31:00,
2013-02-12 07:41:00,34.3,26.9,29.58,ENE,70,0.0,4.0,74,0.00,,,0.00,35,Wunderground v.1.15,2013-02-12 12:41:00,
2013-02-12 07:51:00,34.4,27.0,29.58,ENE,70,0.0,4.0,74,0.00,,,0.00,35,Wunderground v.1.15,2013-02-12 12:51:00,
2013-02-12 08:01:00,34.7,26.9,29.59,East,80,0.0,4.0,73,0.00,,,0.00,19,Wunderground v.1.15,2013-02-12 13:01:00,
2013-02-12 08:06:00,34.7,26.9,29.59,East,80,0.0,4.0,73,0.00,,,0.00,18,Wunderground v.1.15,2013-02-12 13:06:00,
2013-02-12 08:15:00,34.7,26.9,29.59,East,81,0.0,4.0,73,0.00,,,0.00,14,Wunderground v.1.15,2013-02-12 13:15:00,
2013-02-12 08:21:00,34.7,26.9,29.59,East,81,0.0,4.0,73,0.00,,,0.00,12,Wunderground v.1.15,2013-02-12 13:21:00,
2013-02-12 08:31:00,34.9,26.4,29.59,SE,129,1.0,3.0,71,0.00,,,0.00,18,Wunderground v.1.15,2013-02-12 13:31:00,
2013-02-12 08:41:00,35.0,26.5,29.59,SSE,157,1.0,1.0,71,0.00,,,0.00,23,Wunderground v.1.15,2013-02-12 13:41:00,
2013-02-12 08:51:00,35.0,26.9,29.60,SSE,157,0.0,3.0,72,0.00,,,0.00,35,Wunderground v.1.15,2013-02-12 13:51:00,
2013-02-12 09:00:00,35.0,26.9,29.60,SSE,157,0.0,4.0,72,0.00,,,0.00,58,Wunderground v.1.15,2013-02-12 14:00:00,
2013-02-12 09:11:00,35.2,26.7,29.60,SSE,157,0.0,4.0,71,0.00,,,0.00,104,Wunderground v.1.15,2013-02-12 14:11:00,
2013-02-12 09:20:00,35.8,27.0,29.61,SSE,157,0.0,4.0,70,0.00,,,0.00,69,Wunderground v.1.15,2013-02-12 14:20:00,
2013-02-12 09:26:00,35.9,27.1,29.61,SSE,157,0.0,4.0,70,0.00,,,0.00,62,Wunderground v.1.15,2013-02-12 14:26:00,
2013-02-12 09:36:00,36.2,27.0,29.61,SSE,157,0.0,4.0,69,0.00,,,0.00,60,Wunderground v.1.15,2013-02-12 14:36:00,
2013-02-12 09:46:00,36.3,27.4,29.62,SSE,157,1.0,4.0,70,0.00,,,0.00,53,Wunderground v.1.15,2013-02-12 14:46:00,
2013-02-12 09:56:00,36.3,27.8,29.62,SSE,157,0.0,4.0,71,0.00,,,0.00,49,Wunderground v.1.15,2013-02-12 14:56:00,
2013-02-12 10:11:00,36.2,28.4,29.62,SSE,157,0.0,3.0,73,0.00,,,0.00,56,Wunderground v.1.15,2013-02-12 15:11:00,
2013-02-12 10:21:00,36.2,28.4,29.62,SSE,157,0.0,3.0,73,0.00,,,0.00,97,Wunderground v.1.15,2013-02-12 15:21:00,
2013-02-12 10:31:00,36.5,28.7,29.63,SSE,157,0.0,1.0,73,0.00,,,0.00,88,Wunderground v.1.15,2013-02-12 15:31:00,
2013-02-12 10:36:00,36.5,28.7,29.63,SSE,157,0.0,1.0,73,0.00,,,0.00,84,Wunderground v.1.15,2013-02-12 15:36:00,
2013-02-12 10:45:00,36.8,28.6,29.64,SSE,156,0.0,1.0,72,0.00,,,0.00,83,Wunderground v.1.15,2013-02-12 15:45:00,
2013-02-12 10:51:00,36.9,28.7,29.64,SSE,157,0.0,1.0,72,0.00,,,0.00,90,Wunderground v.1.15,2013-02-12 15:51:00,
2013-02-12 11:01:00,37.2,28.7,29.64,SSE,157,0.0,2.0,71,0.00,,,0.00,62,Wunderground v.1.15,2013-02-12 16:01:00,
2013-02-12 11:06:00,37.2,28.7,29.64,SSE,157,0.0,2.0,71,0.00,,,0.00,54,Wunderground v.1.15,2013-02-12 16:06:00,
2013-02-12 11:15:00,37.2,28.3,29.64,SSE,157,0.0,2.0,70,0.00,,,0.00,51,Wunderground v.1.15,2013-02-12 16:15:00,
2013-02-12 11:21:00,37.0,28.1,29.64,SSE,157,0.0,2.0,70,0.00,,,0.00,49,Wunderground v.1.15,2013-02-12 16:21:00,
2013-02-12 11:31:00,37.0,27.8,29.65,SSE,157,0.0,3.0,69,0.00,,,0.00,42,Wunderground v.1.15,2013-02-12 16:31:00,
2013-02-12 11:41:00,37.0,27.8,29.65,SSE,157,0.0,3.0,69,0.00,,,0.00,42,Wunderground v.1.15,2013-02-12 16:41:00,
2013-02-12 11:51:00,37.0,26.3,29.65,SSE,168,1.0,1.0,65,0.00,,,0.00,47,Wunderground v.1.15,2013-02-12 16:51:00,
2013-02-12 12:01:00,37.3,25.5,29.66,South,174,1.0,9.0,62,0.00,,,0.00,60,Wunderground v.1.15,2013-02-12 17:01:00,
2013-02-12 12:11:00,37.6,25.7,29.66,NW,321,2.0,9.0,62,0.00,,,0.00,49,Wunderground v.1.15,2013-02-12 17:11:00,
2013-02-12 12:21:00,37.6,26.1,29.67,NNE,19,0.0,9.0,63,0.00,,,0.00,54,Wunderground v.1.15,2013-02-12 17:21:00,
2013-02-12 12:31:00,37.6,26.1,29.67,South,171,0.0,8.0,63,0.00,,,0.00,63,Wunderground v.1.15,2013-02-12 17:31:00,
2013-02-12 12:41:00,37.5,26.4,29.67,South,171,0.0,8.0,64,0.00,,,0.00,77,Wunderground v.1.15,2013-02-12 17:41:00,
2013-02-12 12:51:00,37.5,26.4,29.67,ESE,117,0.0,8.0,64,0.00,,,0.00,128,Wunderground v.1.15,2013-02-12 17:51:00,
2013-02-12 13:01:00,37.9,26.4,29.67,ESE,103,1.0,1.0,63,0.00,,,0.00,114,Wunderground v.1.15,2013-02-12 18:01:00,
2013-02-12 13:06:00,37.9,25.6,29.67,ENE,68,1.0,6.0,61,0.00,,,0.00,84,Wunderground v.1.15,2013-02-12 18:06:00,
2013-02-12 13:16:00,37.9,26.0,29.67,East,82,0.0,6.0,62,0.00,,,0.00,74,Wunderground v.1.15,2013-02-12 18:16:00,
2013-02-12 13:26:00,37.8,25.9,29.67,NE,51,1.0,6.0,62,0.00,,,0.00,65,Wunderground v.1.15,2013-02-12 18:26:00,
2013-02-12 13:36:00,37.8,26.3,29.67,East,91,0.0,5.0,63,0.00,,,0.00,56,Wunderground v.1.15,2013-02-12 18:36:00,
2013-02-12 13:46:00,37.8,25.9,29.67,East,91,0.0,5.0,62,0.00,,,0.00,63,Wunderground v.1.15,2013-02-12 18:46:00,
2013-02-12 13:56:00,37.8,25.5,29.67,East,91,0.0,5.0,61,0.00,,,0.00,95,Wunderground v.1.15,2013-02-12 18:56:00,
2013-02-12 14:06:00,38.0,25.7,29.67,East,91,0.0,4.0,61,0.00,,,0.00,105,Wunderground v.1.15,2013-02-12 19:06:00,
2013-02-12 14:15:00,38.2,25.9,29.68,South,181,0.0,4.0,61,0.00,,,0.00,46,Wunderground v.1.15,2013-02-12 19:15:00,
2013-02-12 14:21:00,38.2,25.9,29.68,North,0,0.0,4.0,61,0.00,,,0.00,37,Wunderground v.1.15,2013-02-12 19:21:00,
2013-02-12 14:31:00,38.0,25.3,29.69,SSW,209,1.0,1.0,60,0.00,,,0.00,33,Wunderground v.1.15,2013-02-12 19:31:00,
2013-02-12 14:41:00,37.9,25.6,29.69,NNE,30,0.0,6.0,61,0.00,,,0.00,25,Wunderground v.1.15,2013-02-12 19:41:00,
2013-02-12 14:51:00,37.6,26.1,29.70,NE,39,0.0,6.0,63,0.00,,,0.00,16,Wunderground v.1.15,2013-02-12 19:51:00,
2013-02-12 15:01:00,37.3,26.2,29.71,NE,38,0.0,3.0,64,0.00,,,0.00,12,Wunderground v.1.15,2013-02-12 20:01:00,
2013-02-12 15:06:00,37.2,26.9,29.71,NE,38,0.0,3.0,66,0.00,,,0.00,14,Wunderground v.1.15,2013-02-12 20:06:00,
2013-02-12 15:16:00,36.8,26.9,29.71,NE,38,0.0,3.0,67,0.00,,,0.00,19,Wunderground v.1.15,2013-02-12 20:16:00,
2013-02-12 15:26:00,36.5,26.9,29.71,NE,38,0.0,3.0,68,0.00,,,0.00,21,Wunderground v.1.15,2013-02-12 20:26:00,
2013-02-12 15:36:00,36.2,27.0,29.70,NE,38,0.0,0.0,69,0.00,,,0.00,23,Wunderground v.1.15,2013-02-12 20:36:00,
2013-02-12 15:46:00,36.0,27.2,29.71,NE,38,0.0,0.0,70,0.00,,,0.00,14,Wunderground v.1.15,2013-02-12 20:46:00,
2013-02-12 15:56:00,35.9,27.1,29.71,NE,38,0.0,0.0,70,0.00,,,0.00,14,Wunderground v.1.15,2013-02-12 20:56:00,
2013-02-12 16:11:00,35.9,26.4,29.71,NE,38,0.0,2.0,68,0.00,,,0.00,16,Wunderground v.1.15,2013-02-12 21:11:00,
2013-02-12 16:21:00,35.8,27.0,29.71,North,358,0.0,2.0,70,0.00,,,0.00,14,Wunderground v.1.15,2013-02-12 21:21:00,
2013-02-12 16:31:00,35.6,26.8,29.71,North,358,0.0,2.0,70,0.00,,,0.00,11,Wunderground v.1.15,2013-02-12 21:31:00,
2013-02-12 16:41:00,35.5,27.4,29.71,North,358,0.0,2.0,72,0.00,,,0.00,5,Wunderground v.1.15,2013-02-12 21:41:00,
2013-02-12 16:46:00,35.5,27.4,29.72,North,358,0.0,2.0,72,0.00,,,0.00,0,Wunderground v.1.15,2013-02-12 21:46:00,
2013-02-12 16:56:00,35.2,27.1,29.72,North,358,0.0,2.0,72,0.00,,,0.00,0,Wunderground v.1.15,2013-02-12 21:56:00,
2013-02-12 17:06:00,35.0,26.9,29.73,North,358,0.0,1.0,72,0.00,,,0.00,0,Wunderground v.1.15,2013-02-12 22:06:00,
2013-02-12 17:16:00,34.9,26.8,29.73,North,0,0.0,2.0,72,0.00,,,0.00,0,Wunderground v.1.15,2013-02-12 22:16:00,
2013-02-12 17:26:00,34.7,26.6,29.73,SSE,162,0.0,1.0,72,0.00,,,0.00,0,Wunderground v.1.15,2013-02-12 22:26:00,
2013-02-12 17:35:00,34.7,26.6,29.73,SSE,161,0.0,4.0,72,0.00,,,0.00,0,Wunderground v.1.15,2013-02-12 22:35:00,
2013-02-12 17:41:00,34.6,26.5,29.73,SSE,161,0.0,4.0,72,0.00,,,0.00,0,Wunderground v.1.15,2013-02-12 22:41:00,
2013-02-12 17:50:00,34.6,26.5,29.73,SSE,161,0.0,4.0,72,0.00,,,0.00,0,Wunderground v.1.15,2013-02-12 22:50:00,
2013-02-12 17:56:00,34.4,26.3,29.73,SSE,161,0.0,4.0,72,0.00,,,0.00,0,Wunderground v.1.15,2013-02-12 22:56:00,
2013-02-12 18:06:00,34.3,26.5,29.73,SSE,161,0.0,2.0,73,0.00,,,0.00,0,Wunderground v.1.15,2013-02-12 23:06:00,
2013-02-12 18:15:00,34.1,26.3,29.73,SSE,161,0.0,2.0,73,0.00,,,0.00,0,Wunderground v.1.15,2013-02-12 23:15:00,
2013-02-12 18:21:00,34.0,26.3,29.73,SSE,161,0.0,2.0,73,0.00,,,0.00,0,Wunderground v.1.15,2013-02-12 23:21:00,
2013-02-12 18:31:00,33.8,26.7,29.75,SSE,161,0.0,1.0,75,0.00,,,0.00,0,Wunderground v.1.15,2013-02-12 23:31:00,
2013-02-12 18:41:00,33.7,26.9,29.75,SSE,161,0.0,1.0,76,0.00,,,0.00,0,Wunderground v.1.15,2013-02-12 23:41:00,
2013-02-12 18:51:00,33.7,26.9,29.75,SSE,161,0.0,1.0,76,0.00,,,0.00,0,Wunderground v.1.15,2013-02-12 23:51:00,
2013-02-12 19:01:00,33.5,26.7,29.76,SSE,161,0.0,0.0,76,0.00,,,0.00,0,Wunderground v.1.15,2013-02-13 00:01:00,
2013-02-12 19:06:00,33.5,26.7,29.76,SSE,161,0.0,0.0,76,0.00,,,0.00,0,Wunderground v.1.15,2013-02-13 00:06:00,
2013-02-12 19:16:00,33.4,26.6,29.77,SSE,161,0.0,0.0,76,0.00,,,0.00,0,Wunderground v.1.15,2013-02-13 00:16:00,
2013-02-12 19:25:00,33.4,27.0,29.77,SSE,161,0.0,0.0,77,0.00,,,0.00,0,Wunderground v.1.15,2013-02-13 00:25:00,
2013-02-12 19:31:00,33.4,26.6,29.77,SSE,161,0.0,0.0,76,0.00,,,0.00,0,Wunderground v.1.15,2013-02-13 00:31:00,
2013-02-12 19:41:00,33.2,26.5,29.77,SSE,161,0.0,0.0,76,0.00,,,0.00,0,Wunderground v.1.15,2013-02-13 00:41:00,
2013-02-12 19:51:00,33.2,26.5,29.78,SSE,161,0.0,0.0,76,0.00,,,0.00,0,Wunderground v.1.15,2013-02-13 00:51:00,
2013-02-12 20:01:00,33.2,26.1,29.78,SSE,161,0.0,1.0,75,0.00,,,0.00,0,Wunderground v.1.15,2013-02-13 01:01:00,
2013-02-12 20:06:00,33.2,26.1,29.78,SSE,161,0.0,1.0,75,0.00,,,0.00,0,Wunderground v.1.15,2013-02-13 01:06:00,
2013-02-12 20:16:00,33.2,25.8,29.79,SSE,161,0.0,1.0,74,0.00,,,0.00,0,Wunderground v.1.15,2013-02-13 01:16:00,
2013-02-12 20:26:00,33.2,25.8,29.79,SSE,161,0.0,1.0,74,0.00,,,0.00,0,Wunderground v.1.15,2013-02-13 01:26:00,
2013-02-12 20:35:00,33.2,25.8,29.80,SSE,161,0.0,0.0,74,0.00,,,0.00,0,Wunderground v.1.15,2013-02-13 01:35:00,
2013-02-12 20:41:00,33.2,26.1,29.80,SSE,161,0.0,0.0,75,0.00,,,0.00,0,Wunderground v.1.15,2013-02-13 01:41:00,
2013-02-12 20:51:00,33.1,26.0,29.81,SSE,161,0.0,0.0,75,0.00,,,0.00,0,Wunderground v.1.15,2013-02-13 01:51:00,
2013-02-12 21:01:00,32.9,25.8,29.81,SSE,161,0.0,0.0,75,0.00,,,0.00,0,Wunderground v.1.15,2013-02-13 02:01:00,
2013-02-12 21:06:00,32.9,25.8,29.81,SSE,161,0.0,0.0,75,0.00,,,0.00,0,Wunderground v.1.15,2013-02-13 02:06:00,
2013-02-12 21:16:00,32.9,25.5,29.81,SSE,161,0.0,0.0,74,0.00,,,0.00,0,Wunderground v.1.15,2013-02-13 02:16:00,
2013-02-12 21:26:00,32.8,25.1,29.81,SSE,161,0.0,0.0,73,0.00,,,0.00,0,Wunderground v.1.15,2013-02-13 02:26:00,
2013-02-12 21:36:00,32.7,24.7,29.81,SSE,161,0.0,0.0,72,0.00,,,0.00,0,Wunderground v.1.15,2013-02-13 02:36:00,
2013-02-12 21:46:00,32.7,24.3,29.81,SSE,161,0.0,0.0,71,0.00,,,0.00,0,Wunderground v.1.15,2013-02-13 02:46:00,
2013-02-12 21:56:00,32.7,24.3,29.81,SSE,161,0.0,0.0,71,0.00,,,0.00,0,Wunderground v.1.15,2013-02-13 02:56:00,
2013-02-12 22:11:00,32.5,24.1,29.81,SSE,161,0.0,0.0,71,0.00,,,0.00,0,Wunderground v.1.15,2013-02-13 03:11:00,
2013-02-12 22:20:00,32.5,23.5,29.80,WNW,290,0.0,0.0,69,0.00,,,0.00,0,Wunderground v.1.15,2013-02-13 03:20:00,
2013-02-12 22:26:00,32.5,23.5,29.80,WNW,290,0.0,0.0,69,0.00,,,0.00,0,Wunderground v.1.15,2013-02-13 03:26:00,
2013-02-12 22:36:00,32.5,23.5,29.80,WNW,290,0.0,5.0,69,0.00,,,0.00,0,Wunderground v.1.15,2013-02-13 03:36:00,
2013-02-12 22:46:00,32.5,23.8,29.79,WNW,290,0.0,5.0,70,0.00,,,0.00,0,Wunderground v.1.15,2013-02-13 03:46:00,
2013-02-12 22:55:00,32.4,23.7,29.79,WNW,290,0.0,5.0,70,0.00,,,0.00,0,Wunderground v.1.15,2013-02-13 03:55:00,
2013-02-12 23:01:00,32.4,23.7,29.80,WNW,290,0.0,0.0,70,0.00,,,0.00,0,Wunderground v.1.15,2013-02-13 04:01:00,
2013-02-12 23:11:00,32.2,22.8,29.80,WNW,290,0.0,0.0,68,0.00,,,0.00,0,Wunderground v.1.15,2013-02-13 04:11:00,
2013-02-12 23:21:00,32.2,23.5,29.79,WNW,290,0.0,0.0,70,0.00,,,0.00,0,Wunderground v.1.15,2013-02-13 04:21:00,
2013-02-12 23:31:00,32.2,23.8,29.78,WNW,290,0.0,1.0,71,0.00,,,0.00,0,Wunderground v.1.15,2013-02-13 04:31:00,
2013-02-12 23:40:00,32.2,23.8,29.78,WNW,290,0.0,1.0,71,0.00,,,0.00,0,Wunderground v.1.15,2013-02-13 04:40:00,
2013-02-12 23:46:00,32.2,24.2,29.79,WNW,290,0.0,1.0,72,0.00,,,0.00,0,Wunderground v.1.15,2013-02-13 04:46:00,
2013-02-12 23:56:00,31.9,23.9,29.79,WNW,290,0.0,1.0,72,0.00,,,0.00,0,Wunderground v.1.15,2013-02-13 04:56:00,